FDX6 EDDK-LIMC

Flight info

Callsign FDX6
Flight time 1h 4m
Altitude 33000
Route KUMIK1B/31R KUMIK Y854 BOMBI/N0469F320 DCT GIGET DCT ABUKA DCT KRH DCT NATOR/N0468F330 DCT DITON DCT BASGO/N0468F290 Z424 AKASU/N0400F190 Z424 RIXUV
Aircraft MD11/H-SDE1E2E3FGHIJ2J3J4J5M1RWXY/LB1D1

Departure

Time 2026-04-26 13:52
Airport Cologne Bonn Airport (EDDK)

Arrival

Time 2026-04-26 14:57
Airport Milan Malpensa International Airport (LIMC)
Time Latitude Longitude Altitude Speed Heading
2026-04-26 12:51 50.87637 7.12705 240 ft 0 kts 227°
2026-04-26 13:38 50.87648 7.12723 240 ft 4 kts 227°
2026-04-26 13:39 50.87665 7.12754 240 ft 2 kts 227°
2026-04-26 13:39 50.87680 7.12778 240 ft 4 kts 209°
2026-04-26 13:39 50.87699 7.12789 240 ft 4 kts 165°
2026-04-26 13:39 50.87718 7.12773 240 ft 4 kts 137°
2026-04-26 13:40 50.87734 7.12749 240 ft 0 kts 137°
2026-04-26 13:44 50.87716 7.12775 240 ft 7 kts 137°
2026-04-26 13:44 50.87663 7.12852 240 ft 14 kts 137°
2026-04-26 13:45 50.87577 7.12983 240 ft 20 kts 136°
2026-04-26 13:45 50.87460 7.13147 240 ft 24 kts 138°
2026-04-26 13:45 50.87339 7.13322 240 ft 23 kts 137°
2026-04-26 13:45 50.87226 7.13485 242 ft 20 kts 137°
2026-04-26 13:46 50.87129 7.13624 246 ft 17 kts 137°
2026-04-26 13:46 50.87049 7.13740 249 ft 14 kts 137°
2026-04-26 13:46 50.86984 7.13834 252 ft 12 kts 137°
2026-04-26 13:46 50.86914 7.13936 258 ft 15 kts 137°
2026-04-26 13:47 50.86830 7.14057 262 ft 19 kts 137°
2026-04-26 13:47 50.86709 7.14172 265 ft 20 kts 139°
2026-04-26 13:47 50.86596 7.14339 269 ft 25 kts 138°
2026-04-26 13:47 50.86461 7.14532 276 ft 25 kts 137°
2026-04-26 13:48 50.86345 7.14701 283 ft 20 kts 137°
2026-04-26 13:48 50.86240 7.14852 289 ft 21 kts 137°
2026-04-26 13:48 50.86122 7.15022 297 ft 25 kts 137°
2026-04-26 13:48 50.85987 7.15219 301 ft 28 kts 137°
2026-04-26 13:49 50.85850 7.15417 307 ft 25 kts 137°
2026-04-26 13:49 50.85731 7.15590 310 ft 22 kts 137°
2026-04-26 13:49 50.85627 7.15740 312 ft 19 kts 137°
2026-04-26 13:49 50.85539 7.15867 316 ft 16 kts 137°
2026-04-26 13:50 50.85465 7.15974 315 ft 14 kts 138°
2026-04-26 13:50 50.85397 7.16075 315 ft 14 kts 134°
2026-04-26 13:50 50.85347 7.16202 317 ft 14 kts 111°
2026-04-26 13:50 50.85347 7.16350 316 ft 14 kts 73°
2026-04-26 13:51 50.85402 7.16469 317 ft 14 kts 40°
2026-04-26 13:51 50.85490 7.16521 315 ft 15 kts
2026-04-26 13:51 50.85593 7.16464 317 ft 15 kts 319°
2026-04-26 13:51 50.85603 7.16450 317 ft 4 kts 317°
2026-04-26 13:52 50.85817 7.16140 315 ft 92 kts 317°
2026-04-26 13:52 50.86531 7.15123 372 ft 172 kts 320°
2026-04-26 13:52 50.87469 7.13805 1312 ft 186 kts 319°
2026-04-26 13:52 50.88388 7.12543 2865 ft 163 kts 327°
2026-04-26 13:53 50.89447 7.11923 4045 ft 178 kts 356°
2026-04-26 13:53 50.90781 7.12309 4613 ft 211 kts 17°
2026-04-26 13:53 50.92189 7.13110 5598 ft 218 kts 22°
2026-04-26 13:53 50.93500 7.14515 6278 ft 250 kts 45°
2026-04-26 13:54 50.94515 7.16930 7032 ft 270 kts 60°
2026-04-26 13:54 50.95379 7.19611 8151 ft 276 kts 61°
2026-04-26 13:54 50.96235 7.22363 9318 ft 281 kts 61°
2026-04-26 13:55 50.98088 7.28290 10436 ft 335 kts 60°
2026-04-26 13:55 50.98799 7.30549 10646 ft 355 kts 61°
2026-04-26 13:55 51.01298 7.39035 12984 ft 372 kts 70°
2026-04-26 13:56 51.01744 7.43127 13977 ft 383 kts 89°
2026-04-26 13:56 51.01393 7.47341 14824 ft 390 kts 102°
2026-04-26 13:56 51.00627 7.51506 15658 ft 396 kts 108°
2026-04-26 13:56 50.99727 7.55668 16516 ft 401 kts 109°
2026-04-26 13:57 50.98803 7.59880 17358 ft 406 kts 109°
2026-04-26 13:57 50.97892 7.64147 18185 ft 411 kts 108°
2026-04-26 13:57 50.96998 7.68478 18939 ft 416 kts 108°
2026-04-26 13:57 50.96114 7.72868 19637 ft 420 kts 108°
2026-04-26 13:58 50.95233 7.77306 20316 ft 424 kts 107°
2026-04-26 13:58 50.94219 7.81709 20923 ft 427 kts 115°
2026-04-26 13:58 50.92806 7.85875 21597 ft 431 kts 122°
2026-04-26 13:58 50.91183 7.89901 22293 ft 435 kts 124°
2026-04-26 13:59 50.89479 7.93886 22982 ft 439 kts 125°
2026-04-26 13:59 50.87744 7.97899 23699 ft 444 kts 125°
2026-04-26 13:59 50.86003 8.01958 24330 ft 448 kts 124°
2026-04-26 14:00 50.79251 8.12014 26155 ft 456 kts 150°
2026-04-26 14:00 50.76489 8.14534 26786 ft 459 kts 152°
2026-04-26 14:00 50.74596 8.16200 27210 ft 462 kts 152°
2026-04-26 14:01 50.70865 8.19510 28006 ft 468 kts 152°
2026-04-26 14:01 50.68027 8.22095 28627 ft 472 kts 151°
2026-04-26 14:01 50.65185 8.24736 29206 ft 477 kts 150°
2026-04-26 14:01 50.62327 8.27424 29915 ft 479 kts 150°
2026-04-26 14:02 50.59478 8.30119 30666 ft 477 kts 150°
2026-04-26 14:02 50.56630 8.32816 31315 ft 478 kts 150°
2026-04-26 14:02 50.53776 8.35514 31772 ft 480 kts 150°
2026-04-26 14:02 50.50926 8.38203 32160 ft 476 kts 150°
2026-04-26 14:03 50.48062 8.40900 32557 ft 472 kts 150°
2026-04-26 14:03 50.45245 8.43547 32861 ft 472 kts 150°
2026-04-26 14:03 50.42427 8.46190 32932 ft 473 kts 150°
2026-04-26 14:04 50.36759 8.51492 32942 ft 475 kts 150°
2026-04-26 14:04 50.31074 8.56796 32934 ft 476 kts 151°
2026-04-26 14:05 50.25411 8.62065 32933 ft 477 kts 151°
2026-04-26 14:05 50.19704 8.67362 32931 ft 477 kts 151°
2026-04-26 14:06 50.13992 8.72648 32932 ft 477 kts 151°
2026-04-26 14:06 50.08167 8.77588 32924 ft 475 kts 160°
2026-04-26 14:06 50.05033 8.79118 32931 ft 471 kts 171°
2026-04-26 14:07 50.01789 8.79605 32932 ft 467 kts 183°
2026-04-26 14:07 49.95370 8.78461 32932 ft 464 kts 192°
2026-04-26 14:08 49.89001 8.76760 32915 ft 465 kts 192°
2026-04-26 14:08 49.82609 8.75264 32916 ft 465 kts 191°
2026-04-26 14:09 49.77267 8.74134 32910 ft 466 kts 190°
2026-04-26 14:09 49.70842 8.72816 33130 ft 467 kts 190°
2026-04-26 14:10 49.64428 8.71519 33220 ft 463 kts 190°
2026-04-26 14:10 49.61313 8.70882 33230 ft 437 kts 190°
2026-04-26 14:10 49.58385 8.70281 33231 ft 413 kts 190°
2026-04-26 14:10 49.55616 8.69721 33229 ft 390 kts 190°
2026-04-26 14:11 49.50516 8.68721 33222 ft 351 kts 190°
2026-04-26 14:11 49.45540 8.67752 33249 ft 372 kts 191°
2026-04-26 14:12 49.42933 8.67221 33242 ft 384 kts 191°
2026-04-26 14:12 49.40246 8.66669 33238 ft 394 kts 191°
2026-04-26 14:12 49.37492 8.66108 33239 ft 405 kts 190°
2026-04-26 14:12 49.34655 8.65531 33240 ft 417 kts 190°
2026-04-26 14:13 49.28739 8.64330 33237 ft 442 kts 190°
2026-04-26 14:13 49.25643 8.63702 33236 ft 455 kts 190°
2026-04-26 14:14 49.19255 8.62412 33214 ft 466 kts 190°
2026-04-26 14:14 49.12814 8.61120 33227 ft 467 kts 190°
2026-04-26 14:15 49.06385 8.59828 33227 ft 467 kts 190°
2026-04-26 14:15 48.99937 8.58525 33222 ft 467 kts 191°
2026-04-26 14:16 48.93560 8.56746 33219 ft 465 kts 194°
2026-04-26 14:16 48.87241 8.54646 33220 ft 465 kts 195°
2026-04-26 14:17 48.80921 8.52541 33211 ft 465 kts 195°
2026-04-26 14:17 48.74593 8.50474 33199 ft 465 kts 195°
2026-04-26 14:18 48.68298 8.48437 33202 ft 465 kts 195°
2026-04-26 14:18 48.62023 8.46414 33206 ft 465 kts 195°
2026-04-26 14:19 48.55694 8.44378 33205 ft 465 kts 195°
2026-04-26 14:19 48.49410 8.42362 33200 ft 465 kts 195°
2026-04-26 14:20 48.43075 8.40333 33198 ft 465 kts 195°
2026-04-26 14:20 48.36753 8.38314 33196 ft 465 kts 195°
2026-04-26 14:21 48.30418 8.36297 33193 ft 465 kts 195°
2026-04-26 14:21 48.24091 8.34286 33195 ft 465 kts 195°
2026-04-26 14:22 48.17745 8.32369 33192 ft 467 kts 190°
2026-04-26 14:22 48.11237 8.31928 33189 ft 471 kts 182°
2026-04-26 14:23 48.04683 8.32172 33195 ft 471 kts 181°
2026-04-26 14:23 47.98130 8.32385 33195 ft 471 kts 182°
2026-04-26 14:24 47.91575 8.32507 33177 ft 471 kts 182°
2026-04-26 14:24 47.85020 8.32598 33192 ft 471 kts 182°
2026-04-26 14:25 47.78464 8.32686 33194 ft 471 kts 182°
2026-04-26 14:25 47.71907 8.32776 33193 ft 471 kts 182°
2026-04-26 14:26 47.65355 8.32868 33187 ft 471 kts 182°
2026-04-26 14:26 47.58804 8.32959 33191 ft 471 kts 182°
2026-04-26 14:27 47.52252 8.33051 33191 ft 471 kts 182°
2026-04-26 14:27 47.45704 8.33142 33187 ft 470 kts 182°
2026-04-26 14:28 47.39163 8.33233 33178 ft 468 kts 182°
2026-04-26 14:28 47.32675 8.33324 33184 ft 466 kts 182°
2026-04-26 14:29 47.26234 8.33768 33177 ft 466 kts 178°
2026-04-26 14:29 47.19773 8.34671 33174 ft 466 kts 177°
2026-04-26 14:30 47.13314 8.35616 33170 ft 466 kts 177°
2026-04-26 14:30 47.06860 8.36523 33175 ft 465 kts 178°
2026-04-26 14:31 47.00423 8.37406 33186 ft 464 kts 178°
2026-04-26 14:31 46.93993 8.38281 33180 ft 464 kts 178°
2026-04-26 14:32 46.87559 8.39155 33185 ft 464 kts 178°
2026-04-26 14:32 46.81124 8.40028 33154 ft 464 kts 178°
2026-04-26 14:33 46.74691 8.40900 33154 ft 464 kts 178°
2026-04-26 14:33 46.68336 8.41763 32909 ft 452 kts 178°
2026-04-26 14:33 46.65199 8.42187 32426 ft 452 kts 178°
2026-04-26 14:34 46.62065 8.42608 31808 ft 451 kts 178°
2026-04-26 14:34 46.58937 8.43027 31198 ft 453 kts 178°
2026-04-26 14:34 46.55795 8.43448 30590 ft 454 kts 177°
2026-04-26 14:34 46.52656 8.43868 29952 ft 456 kts 177°
2026-04-26 14:35 46.49490 8.44292 29269 ft 458 kts 177°
2026-04-26 14:35 46.46307 8.44716 28653 ft 460 kts 177°
2026-04-26 14:35 46.43107 8.45141 28035 ft 463 kts 177°
2026-04-26 14:35 46.39900 8.45567 27405 ft 463 kts 177°
2026-04-26 14:36 46.36705 8.45993 26784 ft 459 kts 177°
2026-04-26 14:36 46.33542 8.46416 26160 ft 455 kts 177°
2026-04-26 14:36 46.30398 8.46836 25530 ft 452 kts 177°
2026-04-26 14:36 46.27278 8.47256 24931 ft 449 kts 177°
2026-04-26 14:37 46.24177 8.47690 24280 ft 445 kts 176°
2026-04-26 14:37 46.21121 8.48127 23640 ft 439 kts 176°
2026-04-26 14:37 46.18141 8.48557 22929 ft 435 kts 176°
2026-04-26 14:37 46.15087 8.48997 22269 ft 432 kts 176°
2026-04-26 14:38 46.12153 8.49446 21642 ft 429 kts 173°
2026-04-26 14:38 46.09206 8.50398 20997 ft 428 kts 165°
2026-04-26 14:38 46.06429 8.51744 20430 ft 426 kts 161°
2026-04-26 14:38 46.04559 8.52770 20139 ft 424 kts 160°
2026-04-26 14:39 46.00955 8.54827 19859 ft 412 kts 160°
2026-04-26 14:39 45.98367 8.56301 19735 ft 388 kts 160°
2026-04-26 14:39 45.95916 8.57675 19607 ft 368 kts 161°
2026-04-26 14:39 45.93590 8.58959 19466 ft 350 kts 161°
2026-04-26 14:40 45.91337 8.60188 19171 ft 343 kts 161°
2026-04-26 14:40 45.89206 8.61706 18661 ft 344 kts 149°
2026-04-26 14:40 45.87247 8.63712 17962 ft 347 kts 143°
2026-04-26 14:40 45.85371 8.65887 17288 ft 347 kts 141°
2026-04-26 14:41 45.83512 8.68107 16634 ft 346 kts 141°
2026-04-26 14:41 45.81664 8.70314 16004 ft 345 kts 141°
2026-04-26 14:41 45.79821 8.72501 15388 ft 343 kts 141°
2026-04-26 14:41 45.77985 8.74664 14776 ft 341 kts 142°
2026-04-26 14:42 45.76062 8.76632 14171 ft 339 kts 148°
2026-04-26 14:42 45.74030 8.78336 13546 ft 337 kts 151°
2026-04-26 14:42 45.71980 8.79933 12914 ft 335 kts 152°
2026-04-26 14:42 45.69934 8.81499 12324 ft 332 kts 152°
2026-04-26 14:43 45.67903 8.83050 11740 ft 329 kts 152°
2026-04-26 14:43 45.65902 8.84583 11335 ft 322 kts 152°
2026-04-26 14:43 45.63976 8.86063 11181 ft 306 kts 152°
2026-04-26 14:43 45.62113 8.87362 11057 ft 290 kts 161°
2026-04-26 14:44 45.60222 8.88114 10991 ft 279 kts 168°
2026-04-26 14:44 45.58346 8.88667 10845 ft 274 kts 169°
2026-04-26 14:44 45.56466 8.89181 10371 ft 273 kts 169°
2026-04-26 14:44 45.54599 8.89683 10015 ft 274 kts 169°
2026-04-26 14:45 45.52735 8.90185 9624 ft 272 kts 169°
2026-04-26 14:45 45.51503 8.90517 9367 ft 271 kts 169°
2026-04-26 14:45 45.49047 8.91181 8973 ft 270 kts 169°
2026-04-26 14:45 45.47221 8.91675 8263 ft 268 kts 169°
2026-04-26 14:46 45.45407 8.92167 7571 ft 264 kts 169°
2026-04-26 14:46 45.43615 8.92652 6961 ft 261 kts 168°
2026-04-26 14:46 45.41844 8.93134 6476 ft 259 kts 169°
2026-04-26 14:46 45.40083 8.93611 6091 ft 254 kts 169°
2026-04-26 14:47 45.38384 8.94071 5944 ft 247 kts 169°
2026-04-26 14:47 45.36716 8.94524 5939 ft 243 kts 169°
2026-04-26 14:47 45.35063 8.94971 5947 ft 239 kts 169°
2026-04-26 14:47 45.33531 8.95387 5927 ft 209 kts 169°
2026-04-26 14:48 45.32177 8.95753 5893 ft 191 kts 169°
2026-04-26 14:48 45.30879 8.95820 5855 ft 186 kts 195°
2026-04-26 14:48 45.29831 8.94828 5840 ft 184 kts 235°
2026-04-26 14:48 45.29457 8.93132 5839 ft 184 kts 273°
2026-04-26 14:49 45.29916 8.91476 5847 ft 183 kts 311°
2026-04-26 14:49 45.30830 8.90212 5888 ft 184 kts 317°
2026-04-26 14:49 45.31735 8.88937 5872 ft 184 kts 314°
2026-04-26 14:49 45.32598 8.87593 5866 ft 184 kts 311°
2026-04-26 14:50 45.33421 8.86208 5849 ft 183 kts 309°
2026-04-26 14:50 45.34214 8.84787 5850 ft 183 kts 308°
2026-04-26 14:50 45.34984 8.83339 5854 ft 183 kts 307°
2026-04-26 14:50 45.35736 8.81876 5852 ft 183 kts 308°
2026-04-26 14:51 45.36686 8.80703 5625 ft 183 kts 339°
2026-04-26 14:51 45.37909 8.80291 5418 ft 182 kts 349°
2026-04-26 14:51 45.39153 8.79943 5168 ft 182 kts 348°
2026-04-26 14:51 45.40392 8.79587 4913 ft 181 kts 349°
2026-04-26 14:52 45.41628 8.79239 4649 ft 181 kts 349°
2026-04-26 14:52 45.42861 8.78896 4401 ft 181 kts 349°
2026-04-26 14:52 45.44100 8.78553 4135 ft 182 kts 349°
2026-04-26 14:52 45.45352 8.78208 3894 ft 184 kts 349°
2026-04-26 14:53 45.46606 8.77863 3638 ft 183 kts 349°
2026-04-26 14:53 45.47854 8.77519 3395 ft 183 kts 349°
2026-04-26 14:53 45.49108 8.77176 3159 ft 183 kts 349°
2026-04-26 14:53 45.50359 8.76833 2907 ft 183 kts 349°
2026-04-26 14:54 45.51605 8.76489 2696 ft 180 kts 349°
2026-04-26 14:54 45.52799 8.76162 2425 ft 168 kts 349°
2026-04-26 14:54 45.53540 8.75958 2282 ft 162 kts 349°
2026-04-26 14:54 45.54643 8.75655 2070 ft 159 kts 349°
2026-04-26 14:55 45.55723 8.75358 1867 ft 158 kts 349°
2026-04-26 14:55 45.56797 8.75062 1675 ft 157 kts 348°
2026-04-26 14:55 45.57873 8.74758 1499 ft 158 kts 348°
2026-04-26 14:55 45.58940 8.74448 1313 ft 156 kts 349°
2026-04-26 14:56 45.60005 8.74156 1090 ft 155 kts 351°
2026-04-26 14:56 45.61062 8.73878 880 ft 155 kts 351°
2026-04-26 14:56 45.62110 8.73606 750 ft 143 kts 348°
2026-04-26 14:56 45.62931 8.73373 749 ft 101 kts 348°
2026-04-26 14:57 45.63501 8.73215 752 ft 64 kts 348°
2026-04-26 14:57 45.63787 8.72971 756 ft 35 kts 308°
2026-04-26 14:57 45.63919 8.72696 755 ft 32 kts 303°
2026-04-26 14:57 45.63951 8.72517 755 ft 15 kts 259°
2026-04-26 14:58 45.63930 8.72379 758 ft 14 kts 259°
2026-04-26 14:58 45.63916 8.72247 757 ft 15 kts 265°
2026-04-26 14:58 45.63910 8.72055 750 ft 24 kts 267°
2026-04-26 14:58 45.63892 8.71904 753 ft 11 kts 248°
2026-04-26 14:59 45.63852 8.71841 756 ft 8 kts 205°
2026-04-26 14:59 45.63776 8.71832 756 ft 14 kts 173°
2026-04-26 14:59 45.63660 8.71876 756 ft 21 kts 160°
2026-04-26 14:59 45.63564 8.71914 757 ft 21 kts 179°
2026-04-26 15:00 45.63364 8.71944 757 ft 17 kts 168°
2026-04-26 15:00 45.63252 8.71974 756 ft 16 kts 169°
2026-04-26 15:00 45.63148 8.72004 756 ft 15 kts 167°
2026-04-26 15:00 45.63054 8.72030 756 ft 13 kts 171°
2026-04-26 15:01 45.62959 8.72058 756 ft 16 kts 166°
2026-04-26 15:01 45.62834 8.72095 758 ft 20 kts 172°
2026-04-26 15:01 45.62694 8.72128 756 ft 20 kts 173°
2026-04-26 15:01 45.62577 8.72153 755 ft 16 kts 167°
2026-04-26 15:02 45.62475 8.72187 756 ft 14 kts 169°
2026-04-26 15:02 45.62383 8.72215 756 ft 13 kts 167°
2026-04-26 15:02 45.62286 8.72242 756 ft 17 kts 169°
2026-04-26 15:02 45.62149 8.72279 758 ft 23 kts 169°
2026-04-26 15:03 45.61979 8.72327 756 ft 25 kts 168°
2026-04-26 15:03 45.61814 8.72374 758 ft 23 kts 168°
2026-04-26 15:03 45.61659 8.72417 756 ft 22 kts 169°
2026-04-26 15:03 45.61520 8.72454 755 ft 18 kts 169°
2026-04-26 15:04 45.61430 8.72459 755 ft 8 kts 208°
2026-04-26 15:04 45.61404 8.72401 755 ft 6 kts 247°
2026-04-26 15:04 45.61395 8.72354 759 ft 4 kts 260°
2026-04-26 15:04 45.61388 8.72298 758 ft 9 kts 260°
2026-04-26 15:05 45.61369 8.72218 755 ft 7 kts 231°
2026-04-26 15:05 45.61344 8.72199 756 ft 5 kts 196°
2026-04-26 15:05 45.61282 8.72208 758 ft 13 kts 169°
2026-04-26 15:05 45.61177 8.72230 761 ft 8 kts 190°
2026-04-26 15:06 45.61139 8.72190 756 ft 6 kts 226°
2026-04-26 15:06 45.61110 8.72155 756 ft 5 kts 219°
2026-04-26 15:06 45.61093 8.72125 756 ft 3 kts 237°
2026-04-26 15:06 45.61083 8.72088 756 ft 6 kts 252°
2026-04-26 15:07 45.61073 8.72026 757 ft 1 kts 258°
2026-04-26 15:07 45.61073 8.72024 757 ft 0 kts 258°